Hourly Data Report for October 13, 2014

All times are specified in Local Standard Time (LST). Add 1 hour to adjust for Daylight Saving Time where and when it is observed.

POND INLET A
NUNAVUT

72°41'22.000" N
77°58'08.000" W
61.60 m
2403206
71095
YIO

Related Data

No related data is available for this station

Download Data

Hourly Data (October 2014)
Hourly Data Report for October 13, 2014
Temp Definition
°C
Dew Point Temp Definition
°C
Rel Hum Definition
%
Wind Dir Definition
10's deg

Wind Spd Definition
km/h
Visibility Definition
km
Stn Press Definition
kPa
Hmdx Definition


Wind Chill Definition


Weather Definition


TIME
00:00 Legend Double Dagger -4.9 -8.8 74 13 11 16.1 100.37   -9 LegendNANA
01:00 Legend Double Dagger -1.3 -5.4 74 8 15 16.1 100.41   -6 LegendNANA
02:00 Legend Double Dagger -1.5 -4.5 80 8 15 16.1 100.45   -6 LegendNANA
03:00 Legend Double Dagger -1.5 -6.5 69 9 26 16.1 100.45   -8 LegendNANA
04:00 Legend Double Dagger -1.2 -5.4 73 7 21 16.1 100.49   -7 LegendNANA
05:00 Legend Double Dagger -1.2 -4.4 79 7 11 16.1 100.49   -5 LegendNANA
06:00 Legend Double Dagger -1.4 -4.4 80 4 15 16.1 100.51   -6 LegendNANA
07:00 Legend Double Dagger -1.0 -3.0 86 4 18 16.1 100.51   -6 LegendNANA
08:00 Legend Double Dagger -1.4 -4.4 80 LegendMM 8 16.1 100.52   -4 LegendNANA
09:00 Legend Double Dagger -1.5 -4.7 79 29 5 16.1 100.53   -3 LegendNANA
10:00 Legend Double Dagger -0.8 -2.9 86 LegendMM 4 16.1 100.52   -2 LegendNANA
11:00 Legend Double Dagger -2.2 -5.5 78 7 8 16.1 100.55   -5 LegendNANA
12:00 Legend Double Dagger -1.4 -4.8 78 LegendMM 9 16.1 100.59   -5 LegendNANA
13:00 Legend Double Dagger -1.0 -4.9 75 LegendMM 4 16.1 100.62   -2 LegendNANA
14:00 Legend Double Dagger -0.3 -5.5 68 7 24 16.1 100.61   -6 LegendNANA
15:00 Legend Double Dagger -0.9 -4.6 76 6 22 16.1 100.61   -7 LegendNANA
16:00 Legend Double Dagger -0.8 -5.2 72 8 30 16.1 100.60   -8 LegendNANA
17:00 Legend Double Dagger -1.3 -5.0 76 7 24 16.1 100.65   -7 LegendNANA
18:00 Legend Double Dagger -0.9 -4.6 76 5 18 16.1 100.66   -6 LegendNANA
19:00 Legend Double Dagger -0.9 -4.3 78 6 26 16.1 100.64   -7 LegendNANA
20:00 Legend Double Dagger -0.5 -4.8 73 7 22 16.1 100.65   -6 LegendNANA
21:00 Legend Double Dagger -0.3 -5.0 71 6 22 16.1 100.62   -6 LegendNANA
22:00 Legend Double Dagger -0.6 -4.1 77 5 26 16.1 100.61   -7 LegendNANA
23:00 Legend Double Dagger -0.2 -3.7 77 5 28 16.1 100.62   -7 LegendNANA

Notes on Data Quality.

Legend

  • E = Estimated
  • M = Missing
  • NA = Not Available
  • ‡ = Partner data that is not subject to review by the National Climate Archives
Date modified: